Regional Weather Roundup
Issued by NWS Sioux Falls, SD

Home | Current Version | Previous Version | Text Only | Print | Product List | Glossary On
Versions: 1 2 3 4 5 6 7 8 9 10 11 12 13 14 15 16 17 18 19 20 21 22 23 24 25 26 27 28 29 30 31 32 33 34 35 36 37 38 39 40 41 42 43 44 45 46 47 48 49 50
000
ASUS43 KFSD 071910
RWRFSD

WEATHER ROUNDUP FOR SE SOUTH DAKOTA/SW MINNESOTA/NW IOWA
NATIONAL WEATHER SERVICE SIOUX FALLS SD
100 PM CST WED DEC 07 2016

NOTE: "FAIR" INDICATES FEW OR NO CLOUDS BELOW 12,000 FEET WITH NO
SIGNIFICANT WEATHER AND OR OBSTRUCTIONS TO VISIBILITY.


SDZ038>040-050-052>070-072000-
SOUTHEAST SOUTH DAKOTA

CITY           SKY/WX    TMP DP  RH WIND       PRES   REMARKS
BROOKINGS      FLURRIES  14   6  70 NW26G35   30.15S WCI  -6
CHAMBERLAIN    CLOUDY    15   5  65 NW24G30   30.33R WCI  -4
HURON          SUNNY     17   4  56 NW26G39   30.26F WCI  -2
MADISON        FLURRIES  14   7  73 NW28G35   30.19S WCI  -6
MITCHELL       SUNNY     19   5  54 W25G32    30.30S WCI   1
SIOUX FALLS    PTSUNNY   18   6  59 W25G36    30.21F WCI   0
WINNER         MOCLDY    14   1  56 NW24G35   30.34S WCI  -5
YANKTON        MOSUNNY  N/A N/A N/A W23G31    30.28S
$$

MNZ071-072-080-081-089-090-097-098-072000-
SOUTHWEST MINNESOTA

CITY           SKY/WX    TMP DP  RH WIND       PRES   REMARKS
FAIRMONT       CLOUDY    21  11  65 W23G30    30.12F WCI   5
JACKSON        PTSUNNY   19   9  63 W24G32    30.12S WCI   2
LUVERNE        SUNNY     19   7  58 NW26G33   30.19F WCI   1
MARSHALL       PTSUNNY   18   8  65 W33G39    30.12F WCI  -2
MONTEVIDEO     CLOUDY    19   9  63 NW17G28   30.13S WCI   4
PIPESTONE      SUNNY     16   7  67 NW21G31   30.14S WCI  -2
REDWOOD FALLS  CLOUDY    20   6  55 NW26G39   30.10F WCI   2
TRACY          SUNNY     20  10  66 NW23G29   30.13S WCI   3
WINDOM         MOSUNNY   21   9  58 W29G35    30.11S WCI   3
WORTHINGTON    SUNNY     18   9  68 W26G35    30.14R WCI  -1
$$

IAZ001>003-012>014-020>022-031-032-NEZ013-014-SDZ071-072000-
NORTHWEST IOWA

CITY           SKY/WX    TMP DP  RH WIND       PRES   REMARKS
CHEROKEE       CLOUDY    21  10  61 W15G23    30.23S WCI   8
DENISON        MOSUNNY   21   9  58 W18       30.23F WCI   6
ESTHERVILLE    CLOUDY    21  11  65 W24G33    30.14S WCI   4
LE MARS        CLOUDY    21   9  58 W17G26    30.26F WCI   7
ORANGE CITY    MOSUNNY   19  10  68 W23G30    30.21F WCI   2
SHELDON        CLOUDY    19  10  68 W23G29    30.18S WCI   2
SIOUX CITY     PTSUNNY   22   7  52 NW22      30.28F WCI   6
SPENCER        PTSUNNY   20   9  62 W32G38    30.17F WCI   1
STORM LAKE     FLURRIES  19   9  63 W24G31    30.19F WCI   2
$$

ABBREVIATIONS USED IN REMARKS
   TC - TEMPERATURE IN CELSIUS
  WCI - WIND CHILL INDEX
   HX - HEAT INDEX
  VSB - VISIBILITY




USA.gov is the U.S. government's official web portal to all federal, state and local government web resources and services.